Weather History for KTVR - October, 2014

Change the Weather History Date:

Thursday, October 23, 2014

  Actual Average Record
Temperature  
Mean Temperature 55 °F 63 °F  
Max Temperature 69 °F 76 °F 88 °F (1963)
Min Temperature 41 °F 50 °F 31 °F (1952)
Degree Days  
Heating Degree Days 10 5  
Month to date heating degree days 48 53  
Since 1 July heating degree days 48 58  
Cooling Degree Days 0 3  
Month to date cooling degree days 126 95  
Year to date cooling degree days 2170 2192  
Growing Degree Days 6 (Base 50)    
Moisture  
Dew Point 46 °F    
Average Humidity 69    
Maximum Humidity 93    
Minimum Humidity 45    
Precipitation  
Precipitation 0.00 in 0.17 in 2.29 in (1972)
Month to date precipitation 4.55 3.56  
Year to date precipitation 49.79 43.02  
Sea Level Pressure  
Sea Level Pressure 30.15 in    
Wind  
Wind Speed 4 mph (North)    
Max Wind Speed 10 mph    
Max Gust Speed 15 mph    
Visibility 10 miles    
Events      
T = Trace of Precipitation, MM = Missing Value Source: NWS Daily Summary

Daily Weather History Graph

Daily Weather History Graph

Search for Another Location

Airport or City:

Trip Planner

Search our weather history database for the weather conditions in past years. The results will help you decide how hot, cold, wet, or windy it might be!

Date:

Astronomy

Oct. 23, 2014 Rise Set
Actual Time 7:13 AM CDT 6:22 PM CDT
Civil Twilight 6:48 AM CDT 6:47 PM CDT
Nautical Twilight 6:20 AM CDT 7:16 PM CDT
Astronomical Twilight 5:51 AM CDT 7:44 PM CDT
Moon 6:54 AM CDT 6:24 PM CDT
Length of Visible Light 11h 58m
Length of Day
11h 08m
Waning Crescent, 0% of the Moon is Illuminated
Oct 23
Waning Crescent
Oct 23
New
Oct 30
First Quarter
Nov 6
Full
Nov 14
Last Quarter

Hourly Weather History & Observations

Time (CDT) Temp. Windchill Dew Point Humidity Pressure Visibility Wind Dir Wind Speed Gust Speed Precip Events Conditions
12:53 AM 48.9 °F - 46.0 °F 90% 30.17 in 10.0 mi North 3.5 mph - N/A   Clear
1:53 AM 44.1 °F - 42.1 °F 93% 30.16 in 10.0 mi Calm Calm - N/A   Clear
2:53 AM 45.0 °F 43.5 °F 43.0 °F 93% 30.15 in 10.0 mi NE 3.5 mph - N/A   Clear
3:53 AM 46.0 °F 44.8 °F 45.0 °F 96% 30.14 in 10.0 mi North 3.5 mph - N/A   Clear
4:53 AM 44.1 °F 42.5 °F 43.0 °F 96% 30.17 in 10.0 mi NNW 3.5 mph - N/A   Clear
5:53 AM 46.0 °F - 45.0 °F 96% 30.17 in 10.0 mi Calm Calm - N/A   Clear
6:53 AM 46.0 °F - 44.1 °F 93% 30.17 in 10.0 mi Calm Calm - N/A   Clear
7:53 AM 50.0 °F - 46.9 °F 89% 30.19 in 10.0 mi NNE 4.6 mph - N/A   Clear
8:53 AM 53.1 °F - 48.0 °F 83% 30.20 in 10.0 mi ENE 5.8 mph - N/A   Clear
9:53 AM - - - N/A% 30.18 in - North - - N/A   Unknown
10:53 AM - - - N/A% 30.17 in - North - - N/A   Unknown
11:53 AM 64.0 °F - 45.0 °F 50% 30.19 in 10.0 mi North - - N/A   Unknown
12:53 PM 66.9 °F - 45.0 °F 45% 30.17 in 10.0 mi SE 5.8 mph - N/A   Clear
1:53 PM 68.0 °F - 46.0 °F 45% 30.14 in 10.0 mi Variable 5.8 mph - N/A   Clear
2:53 PM 68.0 °F - 46.0 °F 45% 30.12 in 10.0 mi NE 6.9 mph - N/A   Clear
3:53 PM 66.9 °F - 48.0 °F 51% 30.13 in 10.0 mi North 4.6 mph - N/A   Clear
4:53 PM 64.9 °F - 48.0 °F 54% 30.10 in 10.0 mi North 8.1 mph - N/A   Clear
5:53 PM 63.0 °F - 48.0 °F 58% 30.13 in 10.0 mi North 6.9 mph - N/A   Clear
6:53 PM 57.9 °F - 48.0 °F 70% 30.14 in 10.0 mi North 4.6 mph - N/A   Clear
7:53 PM 55.0 °F - 48.9 °F 80% 30.15 in 10.0 mi NNW 4.6 mph - N/A   Clear
8:53 PM 51.1 °F - 48.0 °F 89% 30.16 in 10.0 mi North 3.5 mph - N/A   Clear
9:53 PM 48.9 °F - 46.9 °F 93% 30.14 in 10.0 mi Calm Calm - N/A   Clear
10:53 PM 52.0 °F - 48.9 °F 89% 30.13 in 10.0 mi NNE 3.5 mph - N/A   Clear
11:53 PM 46.0 °F - 45.0 °F 96% 30.14 in 10.0 mi Calm Calm - N/A   Clear